Regional Weather Roundup
Issued by NWS

Home | Current Version | Previous Version | Graphics & Text | Print | Product List | Glossary On
Versions: 1 2 3 4 5 6 7 8 9 10 11 12 13 14 15 16 17 18 19 20 21 22 23 24 25 26 27 28 29 30 31 32 33 34 35 36 37 38 39 40 41 42 43 44 45 46 47 48 49 50
000
ASUS43 KIND 152359
RWRIN

WEATHER ROUNDUP FOR INDIANA
NATIONAL WEATHER SERVICE INDIANAPOLIS IN
700 PM EST MON JAN 15 2018

NOTE: "FAIR" INDICATES FEW OR NO CLOUDS BELOW 12,000 FEET WITH NO
SIGNIFICANT WEATHER AND/OR OBSTRUCTIONS TO VISIBILITY.

* - STATION DOES NOT REPORT WEATHER SUCH AS PRECIPITATION OR FOG.

+ - STATION NOT QUALITY CONTROLLED BY THE NATIONAL WEATHER SERVICE.
    USE DATA WITH CAUTION...ESPECIALLY DEWPOINT AND RELATIVE
    HUMIDITY OBSERVATIONS.

INZ001>003-010>013-019-020-160100-
NORTHWEST INDIANA

CITY           SKY/WX    TMP DP  RH WIND       PRES   REMARKS
GARY /AIRPORT/ CLOUDY    16   9  73 W16       30.29R WCI   0
KNOX *+        CLOUDY    14   9  79 W16       30.27R WCI  -2
MONTICELLO +   FAIR      10   3  74 W10G18    30.32R WCI  -4
6HR MIN TEMP:  10; 6HR MAX TEMP:  24;


$$

LMZ046-743>745-160100-
SOUTHERN LAKE MICHIGAN

STATION/POSITION TIME  TEMP    WIND        PRES    WAVE
                       AIR SEA DIR/SP/G            HT
                 (UTC) (F)     (DEG/KT/KT) (MB)    (FT)
BURNS HARBOR     2340   15     230/ 13/ 17 1025.4R
MICHIGAN CITY    2330          220/ 19/ 23   N/A

$$

INZ004-005-014>016-021>024-160100-
NORTH CENTRAL INDIANA

CITY           SKY/WX    TMP DP  RH WIND       PRES   REMARKS
ELKHART        LGT SNOW  18  12  79 SW12      30.24R WCI   5
GOSHEN         LGT SNOW  18  13  80 W18       30.24R WCI   2
6HR MIN TEMP:  18; 6HR MAX TEMP:  23; 6HR PCP: TRACE;

SOUTH BEND     LGT SNOW  15  10  80 SW14      30.25R WCI   0
6HR MIN TEMP:  15; 6HR MAX TEMP:  22; 6HR PCP:  0.01;


$$

INZ006>009-017-018-025>027-160100-
NORTHEAST INDIANA

CITY           SKY/WX    TMP DP  RH WIND       PRES   REMARKS
FORT WAYNE     FLURRIES  23  19  85 W17       30.25R WCI   9
6HR MIN TEMP:  23; 6HR MAX TEMP:  24; 6HR PCP:  0.01;

KENDALLVILLE + FLURRIES  22  20  92 S6        30.21R WCI  15

$$

INZ028-029-035-036-043>045-051>053-160100-
WEST CENTRAL INDIANA

CITY           SKY/WX    TMP DP  RH WIND       PRES   REMARKS
GREENCASTLE +  MOCLDY    12   5  73 W5        30.37R WCI   4
LAFAYETTE      LGT SNOW  11   7  84 W10       30.36R FOG     WCI  -3
6HR MIN TEMP:  11; 6HR MAX TEMP:  24; 6HR PCP: TRACE;

TERRE HAUTE    MOCLDY    13   6  74 W6        30.41R WCI   4
6HR MIN TEMP:  13; 6HR MAX TEMP:  26; 6HR PCP: TRACE;


$$

INZ030>032-037>040-046>048-054>057-064-065-160100-
CENTRAL INDIANA

CITY           SKY/WX    TMP DP  RH WIND       PRES   REMARKS
COLUMBUS       LGT SNOW  25  21  86 W12G18    30.33R WCI  14
GREENWOOD *+   CLOUDY    19  11  70 W15G21    30.33R WCI   5
INDIANAPOLIS   CLOUDY    14   8  77 W17       30.35R WCI  -3
6HR MIN TEMP:  14; 6HR MAX TEMP:  26; 6HR PCP: TRACE;

-EAGLE CREEK   CLOUDY    14   7  73 W12G18    30.34R WCI   0
6HR MIN TEMP:  14; 6HR MAX TEMP:  25; 6HR PCP: TRACE;

MT COMFORT *+  CLOUDY    18  16  93 W17       30.32R WCI   2
SHELBYVILLE    FLURRIES  22  13  68 W13       30.31R WCI  10
6HR MIN TEMP:  22; 6HR MAX TEMP:  27; 6HR PCP: TRACE;


$$

INZ033-034-041-042-049-050-058-059-160100-
EAST CENTRAL INDIANA

CITY           SKY/WX    TMP DP  RH WIND       PRES   REMARKS
MUNCIE         LGT SNOW  22  15  75 W16       30.27R WCI   8
6HR MIN TEMP:  22; 6HR MAX TEMP:  26; 6HR PCP: TRACE;

RICHMOND +     FLURRIES  23  23 100 W10       30.27R WCI  12

$$

INZ060-061-067>069-081>083-085>088-160100-
SOUTHWEST INDIANA

CITY           SKY/WX    TMP DP  RH WIND       PRES   REMARKS
EVANSVILLE     CLOUDY    20  11  68 NW12      30.43R WCI   8
6HR MIN TEMP:  20; 6HR MAX TEMP:  29; 6HR PCP:  0.02;

HUNTINGBURG +  CLOUDY    21  14  74 NW8       30.40R WCI  11
6HR MIN TEMP:  21; 6HR MAX TEMP:  29; 6HR PCP:  0.03;


$$

INZ062-063-066-070>080-084-089>092-160100-
SOUTH CENTRAL AND SOUTHEAST INDIANA

CITY           SKY/WX    TMP DP  RH WIND       PRES   REMARKS
BLOOMINGTON    LGT SNOW  15   9  76 W9        30.36R WCI   3
6HR MIN TEMP:  15; 6HR MAX TEMP:  27; 6HR PCP:  0.01;

MADISON *+     CLOUDY    28  27  93 CALM      30.34R
SEYMOUR +      MIX PCPN  28  25  86 W18       30.33R WCI  16

$$




USA.gov is the U.S. government's official web portal to all federal, state and local government web resources and services.